(322966) = 2002 KF4

Discovered at Socorro on 2002-05-22 by LINEAR.

Orbit

Orbit type: Amor
1+ KM Near-Earth Object

Note: WebGL enabled browser required.

epoch2023-02-25.0
epoch JD2460000.5
perihelion date2022-04-30.90843
perihelion JD2459700.40843
argument of perihelion (°)193.77969
ascending node (°)77.83940
inclination (°)37.03458
eccentricity0.5769128
perihelion distance (AU)1.2279870
Tisserand w.r.t. Jupiter2.8
ΔV w.r.t. Earth (km/sec)12.9
semimajor axis (AU)2.9024441
mean anomaly (°)59.81524
mean daily motion (°/day)0.19932330
aphelion distance (AU)4.577
period (years)4.94
P-vector [x]-0.01871654
P-vector [y]-0.85076388
P-vector [z]-0.52521472
Q-vector [x]0.80807518
Q-vector [y]0.29647354
Q-vector [z]-0.50903629
absolute magnitude17.02
phase slope0.15
uncertainty0
referenceMPO 730567
observations used523
oppositions6
arc length (days)7526
first opposition used2002
last opposition used2022
residual rms (arc-secs)0.59
perturbers coarse indicatorM-v
perturbers precise indicator003El
first observation date used2002-05-08.0
last observation date used2022-12-15.0
computer nameMPCLINUX
Minimum Orbit Intersection Distances (in AU)
for orbit epoch: 2460000.5, reference: E2022-Y08
Mercury0.76379
Venus0.50838
Earth0.22315
Mars0.23988
Jupiter0.649
Saturn4.56679
Uranus14.4942
Neptune25.5357

Observations

557 total observations over interval: 2002 05 08.348820 – 2022 12 15.281839
These data are available for download (format description).

Date (UT) J2000 RA J2000 Dec Magn Location Ref
2002 05 08.348820 13 46 05.771 +52 02 37.90 19.82 V 645 – Apache Point-Sloan Digital Sky Survey MPS 80092
2002 05 08.352292 13 46 05.302 +52 02 33.81 20.83   645 – Apache Point-Sloan Digital Sky Survey MPS 80092
2002 05 22.24766 13 20 39.60 +45 53 01.1 19.1   704 – Lincoln Laboratory ETS, New Mexico MPS 57809
2002 05 22.26211 13 20 38.31 +45 52 29.7 19.2   704 – Lincoln Laboratory ETS, New Mexico MPS 57809
2002 05 22.27658 13 20 36.79 +45 52 00.8 19.1   704 – Lincoln Laboratory ETS, New Mexico MPS 57809
2002 05 22.29103 13 20 35.75 +45 51 27.3 18.8   704 – Lincoln Laboratory ETS, New Mexico MPS 57809
2002 05 22.84773 13 19 48.01 +45 32 23.1   046 – Klet Observatory, Ceske Budejovice MPS 57809
2002 05 22.85116 13 19 47.79 +45 32 18.2   046 – Klet Observatory, Ceske Budejovice MPS 57809
2002 05 22.85366 13 19 47.52 +45 32 11.5   046 – Klet Observatory, Ceske Budejovice MPS 57809
2002 05 22.85688 13 19 47.23 +45 32 06.1   046 – Klet Observatory, Ceske Budejovice MPS 57809
2002 05 22.89387 13 19 43.87 +45 30 49.0   557 – Ondrejov MPS 57809
2002 05 22.89992 13 19 43.30 +45 30 36.6   557 – Ondrejov MPS 57809
2002 05 22.90144 13 19 43.16 +45 30 33.5   557 – Ondrejov MPS 57809
2002 05 23.17019 13 19 20.74 +45 21 15.7 18.7 R 448 – Desert Moon Observatory, Las Cruces MPS 57809
2002 05 23.17322 13 19 20.45 +45 21 09.0 18.9 R 448 – Desert Moon Observatory, Las Cruces MPS 57809
2002 05 23.17822 13 19 20.00 +45 20 58.3 19.2 R 448 – Desert Moon Observatory, Las Cruces MPS 57809
2002 05 24.13610 13 18 01.23 +44 47 06.2 18.6 R 448 – Desert Moon Observatory, Las Cruces MPS 57809
2002 05 24.14137 13 18 00.79 +44 46 54.3 18.6 R 448 – Desert Moon Observatory, Las Cruces MPS 57809
2002 05 24.14977 13 18 00.06 +44 46 36.6 17.7 R 448 – Desert Moon Observatory, Las Cruces MPS 57809
2002 05 24.16133 13 17 59.02 +44 46 12.4 18.3 R 448 – Desert Moon Observatory, Las Cruces MPS 57809
2002 05 24.20818 13 17 55.31 +44 44 28.9   658 – Dominion Astrophysical Observatory MPS 57809
2002 05 24.21072 13 17 55.00 +44 44 23.4   658 – Dominion Astrophysical Observatory MPS 57809
2002 05 24.21405 13 17 54.74 +44 44 16.8   658 – Dominion Astrophysical Observatory MPS 57809
2002 05 30.25046 13 10 53.86 +40 49 37.6   715 – Jornada Observatory, Las Cruces MPS 57809
2002 05 30.25429 13 10 53.70 +40 49 28.0   715 – Jornada Observatory, Las Cruces MPS 57809
2002 05 30.25811 13 10 53.51 +40 49 18.1   715 – Jornada Observatory, Las Cruces MPS 57809
2002 05 30.87950 13 10 17.78 +40 23 05.7   540 – Linz MPS 57809
2002 05 30.88856 13 10 17.29 +40 22 43.1 18.5 R 540 – Linz MPS 57809
2002 05 30.89425 13 10 16.92 +40 22 28.3 18.5 R 540 – Linz MPS 57809
2002 05 31.20923 13 09 59.52 +40 09 07.8 18.9   704 – Lincoln Laboratory ETS, New Mexico MPS 57809
2002 05 31.22264 13 09 58.64 +40 08 35.2 19.4   704 – Lincoln Laboratory ETS, New Mexico MPS 57809
2002 05 31.23608 13 09 57.80 +40 07 59.1 19.1   704 – Lincoln Laboratory ETS, New Mexico MPS 57809
2002 05 31.24951 13 09 56.91 +40 07 23.1 19.2   704 – Lincoln Laboratory ETS, New Mexico MPS 57809
2002 06 05.48245 13 05 55.93 +36 11 45.0   413 – Siding Spring Observatory MPS 57809
2002 06 05.48360 13 05 55.83 +36 11 42.0   413 – Siding Spring Observatory MPS 57809
2002 06 05.48474 13 05 55.84 +36 11 38.1   413 – Siding Spring Observatory MPS 57809
2002 06 05.50078 13 05 55.20 +36 10 51.8   413 – Siding Spring Observatory MPS 57809
2002 06 06.23518 13 05 28.81 +35 35 41.7   696 – Whipple Observatory, Mt. Hopkins MPS 57809
2002 06 06.23655 13 05 28.75 +35 35 37.8   696 – Whipple Observatory, Mt. Hopkins MPS 57809
2002 06 06.28185 13 05 26.98 +35 33 24.0 18.0 R 649 – Powell Observatory, Louisburg MPS 57809
2002 06 06.28501 13 05 26.85 +35 33 14.8 18.0 R 649 – Powell Observatory, Louisburg MPS 57809
2002 06 06.28838 13 05 26.76 +35 33 04.8 18.0 R 649 – Powell Observatory, Louisburg MPS 57809
2002 06 11.90779 13 03 05.33 +30 50 21.5 18.1 R 118 – Astronomical and Geophysical Observatory, Modra MPS 57809
2002 06 11.91123 13 03 05.25 +30 50 11.8   118 – Astronomical and Geophysical Observatory, Modra MPS 57809
2002 06 19.16837 13 02 25.44 +24 11 31.8 18.5   704 – Lincoln Laboratory ETS, New Mexico MPS 57809
2002 06 19.18213 13 02 25.41 +24 10 43.6 18.9   704 – Lincoln Laboratory ETS, New Mexico MPS 57809
2002 06 19.20962 13 02 25.58 +24 09 08.3 18.8   704 – Lincoln Laboratory ETS, New Mexico MPS 57809
2002 06 19.22337 13 02 25.57 +24 08 22.2 19.4   704 – Lincoln Laboratory ETS, New Mexico MPS 57809
2002 06 20.17781 13 02 31.53 +23 13 30.8   704 – Lincoln Laboratory ETS, New Mexico MPS 57809
2002 06 20.19007 13 02 31.55 +23 12 47.5   704 – Lincoln Laboratory ETS, New Mexico MPS 57809
2002 06 20.20205 13 02 31.60 +23 12 05.3   704 – Lincoln Laboratory ETS, New Mexico MPS 57809
2002 06 20.21375 13 02 31.64 +23 11 25.2   704 – Lincoln Laboratory ETS, New Mexico MPS 57809
2002 07 04.88565 13 08 37.39 +08 19 50.9   118 – Astronomical and Geophysical Observatory, Modra MPS 59008
2002 07 04.88670 13 08 37.37 +08 19 47.7   118 – Astronomical and Geophysical Observatory, Modra MPS 59008
2002 07 04.89406 13 08 37.67 +08 19 19.5   118 – Astronomical and Geophysical Observatory, Modra MPS 59008
2002 07 04.89821 13 08 37.81 +08 19 03.7   118 – Astronomical and Geophysical Observatory, Modra MPS 59008
2002 07 10.87034 13 13 18.76 +02 03 09.8 18.3 R 587 – Sormano MPS 59008
2002 07 10.87398 13 13 18.82 +02 02 54.3   587 – Sormano MPS 59008
2002 07 10.88042 13 13 19.11 +02 02 30.0   587 – Sormano MPS 59008
2002 08 19.48679 14 13 45.32 -35 23 22.2 19.4 R 413 – Siding Spring Observatory MPS 61223
2002 08 19.49063 14 13 45.87 -35 23 33.4 18.7 R 413 – Siding Spring Observatory MPS 61223
2002 10 05.43439 17 18 59.43 -60 13 49.3 17.9 R 474 – Mount John Observatory, Lake Tekapo MPS 63257
2002 10 05.43589 17 19 00.35 -60 13 51.6 18.2 R 474 – Mount John Observatory, Lake Tekapo MPS 63257
2002 10 05.43889 17 19 01.17 -60 13 54.9 17.9 R 474 – Mount John Observatory, Lake Tekapo MPS 63257
2002 10 05.44226 17 19 02.50 -60 13 56.0 17.8 R 474 – Mount John Observatory, Lake Tekapo MPS 63257
2002 10 06.41417 17 24 49.60 -60 25 53.8 17.2 R 474 – Mount John Observatory, Lake Tekapo MPS 63257
2002 10 06.41775 17 24 51.10 -60 25 58.2 18.1 R 474 – Mount John Observatory, Lake Tekapo MPS 63257
2002 10 06.41961 17 24 51.76 -60 25 59.1 18.3 R 474 – Mount John Observatory, Lake Tekapo MPS 63257
2002 10 06.42101 17 24 52.28 -60 26 00.4 18.1 R 474 – Mount John Observatory, Lake Tekapo MPS 63257
2002 12 02.43455 22 18 03.26 -49 07 26.0 18.5 R 474 – Mount John Observatory, Lake Tekapo MPS 67928
2002 12 02.43883 22 18 04.06 -49 07 19.6 18.4 R 474 – Mount John Observatory, Lake Tekapo MPS 67928
2003 12 01.26381 04 13 12.00 +07 17 00.3   696 – Whipple Observatory, Mt. Hopkins MPS 92697
2003 12 01.28095 04 13 10.90 +07 17 03.3   696 – Whipple Observatory, Mt. Hopkins MPS 92697
2007 02 07.39205 15 19 58.13 +31 52 29.1 21.3 V 291 – LPL/Spacewatch II MPS 198654
2007 02 07.39698 15 19 58.63 +31 52 31.5 21.7 V 291 – LPL/Spacewatch II MPS 198654
2007 02 07.40135 15 19 59.08 +31 52 35.0   291 – LPL/Spacewatch II MPS 198654
2007 03 06.03900 16 02 18.67 +35 27 15.6 19.8 V 198 – Wildberg MPS 202316
2007 03 06.03970 16 02 18.72 +35 27 16.0 19.9 V 198 – Wildberg MPS 202316
2007 03 06.04323 16 02 19.01 +35 27 18.0 20.2 V 198 – Wildberg MPS 202316
2007 03 06.04535 16 02 19.19 +35 27 19.1 20.3 V 198 – Wildberg MPS 202316
2007 03 06.04605 16 02 19.24 +35 27 19.5 20.3 V 198 – Wildberg MPS 202316
2007 03 18.42088 16 17 08.91 +37 27 36.5 19.4 V 703 – Catalina Sky Survey MPS 204535
2007 03 18.42980 16 17 09.45 +37 27 41.9 19.1 V 703 – Catalina Sky Survey MPS 204535
2007 03 18.43872 16 17 09.99 +37 27 46.5 19.4 V 703 – Catalina Sky Survey MPS 204535
2007 03 18.44838 16 17 10.57 +37 27 53.5 19.3 V 703 – Catalina Sky Survey MPS 204535
2007 04 14.39927 16 30 10.81 +41 22 19.9 18.0 R 699 – Lowell Observatory-LONEOS MPS 206847
2007 04 14.41768 16 30 10.59 +41 22 28.5   699 – Lowell Observatory-LONEOS MPS 206847
2007 04 14.43609 16 30 10.28 +41 22 33.8   699 – Lowell Observatory-LONEOS MPS 206847
2007 04 14.45501 16 30 10.00 +41 22 40.6   699 – Lowell Observatory-LONEOS MPS 206847
2007 04 15.88092 16 29 50.85 +41 30 40.5 18.4 R 235 – CAST Observatory, Talmassons MPS 206847
2007 04 15.88822 16 29 50.82 +41 30 40.5 18.8 R 235 – CAST Observatory, Talmassons MPS 211728
2007 04 27.39623 16 22 15.50 +41 59 22.7 18.3 R H45 – Arkansas Sky Obs., Petit Jean Mountain South MPS 208020
